Location: *
(49.0044°N, 9.5056°E)
Time: 09:48:55
(UTC+00:00)

Cosmos 1934 Rocket - Pass Details

Date: 22 September 2019
Orbit: 938 x 999 km, 83.0° (Epoch: 20 October)

Event Time Altitude Azimuth Distance (km) Brightness Sun altitude
Rises 19:48:15 0° 354° (N) 3,629 7.5 -23.9°
Reaches altitude 10° 19:50:50 10° 360° (N) 2,687 6.7 -24.2°
Maximum altitude 19:56:47 49° 74° (ENE) 1,219 4.2 -25.1°
Enters shadow 19:56:55 49° 79° (E) 1,221 4.2 -25.1°
